Flag for U.S.A. Weather past 2 weeks in Coeur d'Alene, Idaho, U.S.A.

Now
39 °F

Clear.


Feels Like: 36 °F
Forecast: 41 / 71 °F
Wind: 5 mph from East

Location: Coeur d'Alene Weather Reporting System

Current Time: Mar 27, 2015 at 2:05:47 AM

Latest Report: Mar 27, 2015 at 1:35 AM


Visibility: 9 mi

Pressure: 30.20 "Hg

Humidity: 93%

Dew point: 37 °F

Location of Coeur d'AleneLocation

Historic Weather in Coeur d'Alene — Graph

°F

Coeur d'Alene temperature yesterday

Maximum temperature yesterday: 61 °F (at 2:55 PM)
Minimum temperature yesterday: 43 °F (at 11:15 PM)
Average temperature yesterday: 51 °F

Past Weeks' High & Low Weather Summary

 TemperatureHumidityPressure
High63 °F (Mar 13, 2:15 PM)94% (Mar 14, 11:55 AM)30.43 "Hg (Mar 14, 11:55 AM)
Low30 °F (Mar 13, 4:15 AM)38% (Mar 22, 3:35 PM)29.77 "Hg (Mar 15, 5:55 PM)
Average46 °F75%30.09 "Hg
* Reported Mar 12 12:15 AM — Mar 27 12:55 AM, Coeur d'Alene, Weather by CustomWeather, © 2015

Note: Actual official high and low records may vary slightly from our data, if they occured in-between our weather recording intervals... More about our weather records

Advertising

Coeur d'Alene weather history for previous 24 hours

 ConditionsComfort  
Time TempWeatherWind HumidityBarometerVisibility
12:55 AM
Fri, Mar 27
43 °FClear.6 mph87%30.20 "Hg10 mi
12:35 AM43 °FClear.5 mph87%30.21 "Hg10 mi
12:15 AM45 °FClear.7 mph87%30.21 "Hg10 mi
11:55 PM
Thu, Mar 26
45 °FClear.7 mph87%30.22 "Hg10 mi
11:35 PM43 °FClear.7 mph87%30.22 "Hg10 mi
11:15 PM43 °FClear.3 mph87%30.22 "Hg10 mi
10:55 PM45 °FClear.7 mph81%30.22 "Hg10 mi
10:35 PM45 °FClear.5 mph87%30.22 "Hg10 mi
10:15 PM45 °FClear.3 mph87%30.22 "Hg10 mi
9:55 PM48 °FClear.5 mph87%30.22 "Hg10 mi
9:35 PM48 °FClear.3 mph87%30.22 "Hg10 mi
9:15 PM48 °FClear.3 mph87%30.22 "Hg10 mi
8:15 PM52 °FClear.3 mph77%30.22 "Hg10 mi
7:55 PM52 °FSunny.6 mph72%30.22 "Hg10 mi
7:35 PM55 °FSunny.3 mph67%30.23 "Hg10 mi
7:15 PM57 °FSunny.No wind63%30.23 "Hg10 mi
6:55 PM57 °FSunny.5 mph63%30.23 "Hg10 mi
6:35 PM59 °FSunny.No wind59%30.24 "Hg10 mi
6:15 PM61 °FScattered clouds.No wind59%30.24 "Hg10 mi
5:55 PM61 °FBroken clouds.3 mph55%30.25 "Hg10 mi
5:35 PM61 °FScattered clouds.No wind59%30.25 "Hg10 mi
5:15 PM61 °FOvercast.6 mph59%30.25 "Hg10 mi
4:55 PM61 °FPartly sunny.No wind55%30.26 "Hg10 mi
4:35 PM61 °FBroken clouds.No wind59%30.26 "Hg10 mi
4:15 PM61 °FMostly cloudy.No wind59%30.26 "Hg10 mi
3:55 PM61 °FMostly cloudy.No wind59%30.26 "Hg10 mi
3:35 PM61 °FOvercast.7 mph59%30.27 "Hg10 mi
3:15 PM61 °FMostly cloudy.5 mph59%30.27 "Hg10 mi
2:55 PM61 °FMostly cloudy.6 mph59%30.27 "Hg10 mi
2:15 PM59 °FPartly sunny.7 mph63%30.28 "Hg10 mi
1:55 PM57 °FBroken clouds.7 mph67%30.29 "Hg10 mi
1:35 PM57 °FPartly sunny.7 mph67%30.30 "Hg10 mi
1:15 PM57 °FPassing clouds.9 mph67%30.30 "Hg10 mi
12:55 PM57 °FSunny.9 mph67%30.31 "Hg10 mi
12:35 PM55 °FSunny.9 mph72%30.31 "Hg10 mi
12:15 PM54 °FPassing clouds.10 mph72%30.32 "Hg10 mi
11:55 AM54 °FPartly sunny.9 mph72%30.33 "Hg10 mi
11:35 AM52 °FPartly sunny.12 mph77%30.32 "Hg10 mi
11:15 AM52 °FOvercast.12 mph77%30.32 "Hg10 mi
10:55 AM52 °FOvercast.12 mph77%30.32 "Hg10 mi
10:35 AM52 °FPartly sunny.9 mph77%30.32 "Hg10 mi
10:15 AM52 °FPassing clouds.13 mph77%30.33 "Hg10 mi
9:55 AM50 °FPassing clouds.13 mph82%30.32 "Hg10 mi
9:35 AM48 °FScattered clouds.9 mph87%30.33 "Hg10 mi
9:15 AM48 °FMostly cloudy.9 mph87%30.32 "Hg10 mi
8:55 AM46 °FMostly cloudy.7 mph87%30.32 "Hg10 mi
8:35 AM46 °FMostly cloudy.6 mph87%30.33 "Hg10 mi
8:15 AM46 °FMostly cloudy.8 mph87%30.32 "Hg10 mi
7:55 AM46 °FOvercast.6 mph87%30.32 "Hg10 mi
7:35 AM45 °FOvercast.7 mph93%30.32 "Hg10 mi
7:15 AM45 °FMostly cloudy.6 mph93%30.32 "Hg10 mi
6:55 AM45 °FMostly cloudy.6 mph93%30.32 "Hg10 mi
6:35 AM45 °FOvercast.N/A93%30.32 "Hg10 mi
6:15 AM45 °FOvercast.5 mph93%30.32 "Hg10 mi
5:55 AM45 °FOvercast.7 mph93%30.31 "Hg10 mi
5:35 AM45 °FOvercast.7 mph93%30.30 "Hg10 mi
5:15 AM45 °FPartly cloudy.8 mph93%30.30 "Hg10 mi
4:55 AM45 °FPartly cloudy.9 mph93%30.30 "Hg10 mi
4:35 AM46 °FOvercast.9 mph87%30.30 "Hg10 mi
4:15 AM46 °FMostly cloudy.7 mph87%30.30 "Hg10 mi
3:55 AM45 °FMostly cloudy.8 mph93%30.31 "Hg10 mi
3:35 AM46 °FOvercast.8 mph87%30.31 "Hg10 mi
3:15 AM46 °FOvercast.7 mph87%30.31 "Hg10 mi
2:55 AM45 °FOvercast.7 mph93%30.32 "Hg10 mi
2:35 AM45 °FMostly cloudy.3 mph93%30.32 "Hg10 mi
2:15 AM45 °FMostly cloudy.3 mph93%30.32 "Hg10 mi
Weather by CustomWeather, © 2015

See weather overviewHow to use our weather pages